Regional Weather Roundup
Issued by NWS

Home | Current Version | Previous Version | Graphics & Text | Print | Product List | Glossary On
Versions: 1 2 3 4 5 6 7 8 9 10 11 12 13 14 15 16 17 18 19 20 21 22 23 24 25 26 27 28
000
ASUS45 KCYS 040410
RWRWY

WYOMING REGIONAL WEATHER ROUNDUP
NATIONAL WEATHER SERVICE CHEYENNE WY
1000 PM MDT TUE MAY 03 2016

NOTE:  "FAIR" INDICATES FEW OR NO CLOUDS BELOW 12,000 FEET
WITH NO SIGNIFICANT WEATHER AND/OR OBSTRUCTIONS TO VISIBILITY.

WYZ001-040500-
YELLOWSTONE NATIONAL PARK

CITY           SKY/WX    TMP DP  RH WIND       PRES   REMARKS
LK YELLOWSTONE   N/A     35  26  69 CALM      30.33R
W YELLOWSTONE  NOT AVBL

$$
WYZ002>013-054>058-071-098>099-040500-
NORTHERN WYOMING

CITY           SKY/WX    TMP DP  RH WIND       PRES   REMARKS
JACKSON        FAIR      48  27  43 NE3       30.24S
CODY           FAIR      55  34  44 S5        30.16R
GREYBULL       FAIR      63  26  24 S8        30.10R
WORLAND        FAIR      56  36  47 S10       30.13R
SHERIDAN       FAIR      52  41  66 S3        30.14R
BUFFALO        FAIR      54  36  50 W10       30.20R
GILLETTE       FAIR      45  40  82 S7        30.17R
HULETT         FAIR      52  37  58 SE6       30.18R
NEWCASTLE      FAIR      54  32  43 NE6       30.17R

$$
WYZ014>020-022>026-101>103-040500-
CENTRAL WYOMING

CITY           SKY/WX    TMP DP  RH WIND       PRES   REMARKS
BIG PINEY      FAIR      47  23  38 CALM      30.28R
PINEDALE       CLOUDY    50  28  43 SW6       30.29R
DUBOIS         FAIR      46  27  46 W6        30.28R
LANDER         FAIR      53  32  44 SW8       30.20R
RIVERTON       FAIR      61  30  31 SE5       30.21R
CASPER         FAIR      54  34  46 SE6       30.22R
DOUGLAS        FAIR      51  38  60 CALM      30.22R

$$
WYZ021-027>030-104>119-040500-
SOUTHERN WYOMING

CITY           SKY/WX    TMP DP  RH WIND       PRES   REMARKS
EVANSTON       FAIR      55  20  25 VRB3      30.27R
KEMMERER         N/A     54  18  24 S5        30.29R
FORT BRIDGER   CLEAR     50  23  34 SE8       30.30R
ROCK SPRINGS   FAIR      56  21  25 S3        30.27R
DIXON          FAIR      49  32  51 CALM      30.31R
RAWLINS        FAIR      41  30  65 CALM      30.28R
SARATOGA       FAIR      41  30  65 S14       30.30R
LARAMIE        FAIR      40  32  73 W5        30.31R
CHEYENNE       FAIR      46  35  65 W8        30.26R
TORRINGTON     FAIR      55  39  54 VRB5      30.16R
PINE BLUFFS    FAIR      43  36  75 W8        30.22R

$$




USA.gov is the U.S. government's official web portal to all federal, state and local government web resources and services.